Regional Weather Roundup
Issued by NWS

Home | Current Version | Previous Version | Text Only | Print | Product List | Glossary On
Versions: 1 2 3 4 5 6 7 8 9 10 11 12 13 14 15 16 17 18 19 20 21 22 23 24 25 26 27 28 29 30 31 32 33 34 35 36 37 38 39 40 41 42 43 44 45 46 47 48 49 50
000
ASUS45 KPSR 222210
RWRAZ

ARIZONA HOURLY REGIONAL WEATHER ROUNDUP
NATIONAL WEATHER SERVICE PHOENIX AZ
300 PM MST SUN JAN 22 2017

NOTE: FAIR INDICATES FEW OR NO CLOUDS BELOW 12,000 FEET WITH NO
SIGNIFICANT WEATHER AND/OR OBSTRUCTIONS TO VISIBILITY.

AZZ001>003-036-222300-
NORTHWEST ARIZONA

CITY           SKY/WX    TMP DP  RH WIND       PRES   REMARKS
BULLHEAD CITY  CLOUDY    52  46  82 S7        30.06S
KINGMAN        LGT RAIN  45  31  58 S18G25    30.03F
$$

AZZ004>008-015-016-018-222300-
NORTH CENTRAL ARIZONA

CITY           SKY/WX    TMP DP  RH WIND       PRES   REMARKS
GRAND CANYON   SNOW      30  28  92 S14G24    30.05F VSB 1/4 WCI  19
WILLIAMS       CLOUDY    34  25  69 S10G21    30.06F WCI  26
PRESCOTT       CLOUDY    39  32  76 S9        30.10F WCI  33
FLAGSTAFF      LGT SNOW  28  27  96 SW14      30.07F VSB 3/4 WCI  17
PAYSON         CLOUDY    39  30  70 VRB5      30.16S
PAGE           CLOUDY    42  27  55 S8        30.04S
$$

AZZ009>014-017-222300-
NORTHEAST ARIZONA

CITY           SKY/WX    TMP DP  RH WIND       PRES   REMARKS
WINSLOW        CLOUDY    40  34  79 CALM      30.09F
SAINT JOHNS    CLOUDY    43  26  51 W13       30.10R
SHOW LOW       CLOUDY    32  21  64 S15       30.12R WCI  22
$$

AZZ023-222300-
GREATER PHOENIX AREA

CITY           SKY/WX    TMP DP  RH WIND       PRES   REMARKS
PHOENIX        PTSUNNY   59  37  44 S9        30.10F
BUCKEYE        CLOUDY    57  41  54 E13       30.11F
GLENDALE       PTSUNNY   61  39  44 E9        30.12F
LUKE AFB       PTSUNNY   59  39  46 SE8       30.09F
DEER VALLEY    CLOUDY    57  39  51 SE7       30.11F
SCOTTSDALE     CLOUDY    58  35  42 SE8       30.12F
MESA-FALCON    CLOUDY   N/A N/A N/A SE7       30.10F
MESA-GATEWAY   CLOUDY    57  37  47 MISG      30.14S
CHANDLER       PTSUNNY   61  37  41 VRB6      30.12F
$$

AZZ027-028-222300-
SOUTHWEST MARICOPA COUNTY AND PINAL COUNTY

CITY           SKY/WX    TMP DP  RH WIND       PRES   REMARKS
CASA GRANDE    CLOUDY    59  36  42 SE6       30.13S
GILA BEND      FAIR      63  43  47 N12       30.07F
$$

AZZ503-504-507>509-222300-
SOUTHEAST ARIZONA

CITY           SKY/WX    TMP DP  RH WIND       PRES   REMARKS
TUCSON         CLOUDY    61  26  26 SE6       30.12F
DAVIS-MONTHAN  PTSUNNY   60  30  31 S3        30.11F
RYAN FIELD     SUNNY     63  28  27 MISG      30.12F
NOGALES        SUNNY     62  21  20 SE7       30.13S
SIERRA VISTA   SUNNY     57  21  24 E5        30.15F
DOUGLAS        CLOUDY    55  24  30 SE6       30.15F
SAFFORD        CLOUDY    54  29  38 CALM      30.14S
$$

AZZ020-021-025-026-031-222300-
SOUTHWEST ARIZONA

CITY           SKY/WX    TMP DP  RH WIND       PRES   REMARKS
YUMA           SUNNY     68  45  43 S18       30.02F
$$

CAZ031-033-041-043-047-048-061-222300-
SOUTHERN CALIFORNIA

CITY           SKY/WX    TMP DP  RH WIND       PRES   REMARKS
DOWNTOWN L.A.  HVY RAIN  52  49  89 E13G22    29.94F FOG
L.A. AIRPORT   HVY RAIN  50  50 100 E14       29.93F FOG
SAN DIEGO      CLOUDY    61  50  67 S29G37    30.04F
BURBANK        HVY RAIN  50  47  89 SE22      29.89F FOG
ONTARIO        HVY RAIN  48  46  93 NE13      29.97F FOG
RIVERSIDE      HVY RAIN  48  47  96 E12       29.99  FOG
PALM SPRINGS   LGT RAIN  53  46  77 CALM      30.04F
EL CENTRO NAS  SUNNY     66  46  48 VRB5      30.02F
IMPERIAL       SUNNY     65  50  58 W3        30.00F
BLYTHE         CLOUDY    61  45  55 CALM      30.03F
NEEDLES        LGT RAIN  56  45  66 S3        30.04F
$$

NVZ020-UTZ003-222300-
SOUTHERN NEVADA-UTAH

CITY           SKY/WX    TMP DP  RH WIND       PRES   REMARKS
LAS VEGAS      LGT RAIN  45  40  82 S6        29.95F
SALT LAKE CITY CLOUDY    37  26  64 S15G26    29.82S WCI  28
$$

NMZ009-TXZ055-222300-
NEW MEXICO-WEST TEXAS

CITY           SKY/WX    TMP DP  RH WIND       PRES   REMARKS
ALBUQUERQUE    PTSUNNY   44  21  40 N8        30.10S
EL PASO        MOSUNNY   53  26  35 W12       30.11S
$$


........................KEY........................
SKY/WX - SKY CONDITION/WEATHER
TMP    - TEMPERATURE IN FAHRENHEIT
DP     - DEW POINT IN FAHRENHEIT
RH     - RELATIVE HUMIDITY IN PERCENT
WIND   - DIRECTION AND SPEED IN MILES PER HOUR (MPH)
VRB    - VARIABLE WIND DIRECTION
PRES   - MEAN SEA LEVEL PRESSURE IN INCHES OF MERCURY
         F - FALLING PRESSURE   R - RISING PRESSURE
         S - STEADY PRESSURE
VSB    - VISIBILITY IN MILES
HX     - HEAT INDEX IN FAHRENHEIT
WCI    - WIND CHILL INDEX IN FAHRENHEIT
TC     - TEMPERATURE IN CELSIUS WHICH IS ALSO KNOWN AS
         TEMPERATURE IN CENTIGRADE
AFB    - AIR FORCE BASE
         LUKE AFB IS LUKE AIR FORCE BASE
         DAVIS-MONTHAN IS DAVIS-MONTHAN AIR FORCE BASE
NAS    - NAVAL AIR STATION
         EL CENTRO NAS IS EL CENTRO NAVAL AIR STATION
N/A    - NOT AVAILABLE




USA.gov is the U.S. government's official web portal to all federal, state and local government web resources and services.